Time,TemperatureF,DewpointF,PressureIn,WindDirection,WindDirectionDegrees,WindSpeedMPH,WindSpeedGustMPH,Humidity,HourlyPrecipIn,Conditions,Clouds,dailyrainin,SoftwareType,DateUTC
2013-01-04 00:00:00,25.0,18.2,30.36,WSW,247,1.0,7.0,75,0.00,,,0.00,Weather View 32 v70,2013-01-04 05:00:00,
2013-01-04 00:01:00,25.0,18.2,30.36,WSW,247,0.0,7.0,75,0.00,,,0.00,Weather View 32 v70,2013-01-04 05:01:00,
2013-01-04 00:02:00,25.0,18.2,30.36,WSW,247,0.0,7.0,75,0.00,,,0.00,Weather View 32 v70,2013-01-04 05:02:00,
2013-01-04 00:07:00,25.0,18.2,30.35,WSW,247,2.0,7.0,75,0.00,,,0.00,Weather View 32 v70,2013-01-04 05:07:00,
2013-01-04 00:12:00,26.0,18.9,30.35,SW,225,3.0,7.0,74,0.00,,,0.00,Weather View 32 v70,2013-01-04 05:12:00,
2013-01-04 00:17:00,26.0,18.9,30.34,WSW,247,3.0,7.0,74,0.00,,,0.00,Weather View 32 v70,2013-01-04 05:17:00,
2013-01-04 00:22:00,26.0,18.9,30.34,SW,225,1.0,7.0,74,0.00,,,0.00,Weather View 32 v70,2013-01-04 05:22:00,
2013-01-04 00:27:00,26.0,18.9,30.34,WSW,247,3.0,7.0,74,0.00,,,0.00,Weather View 32 v70,2013-01-04 05:27:00,
2013-01-04 00:32:00,26.0,18.9,30.34,WNW,292,1.0,7.0,74,0.00,,,0.00,Weather View 32 v70,2013-01-04 05:32:00,
2013-01-04 00:37:00,26.0,18.5,30.34,WSW,247,4.0,7.0,73,0.00,,,0.00,Weather View 32 v70,2013-01-04 05:37:00,
2013-01-04 00:42:00,26.0,18.5,30.34,SW,225,1.0,7.0,73,0.00,,,0.00,Weather View 32 v70,2013-01-04 05:42:00,
2013-01-04 00:47:00,26.0,18.9,30.34,SSW,202,3.0,7.0,74,0.00,,,0.00,Weather View 32 v70,2013-01-04 05:47:00,
2013-01-04 00:52:00,26.0,18.9,30.34,West,270,0.0,7.0,74,0.00,,,0.00,Weather View 32 v70,2013-01-04 05:52:00,
2013-01-04 00:57:00,26.0,18.9,30.34,WSW,247,3.0,7.0,74,0.00,,,0.00,Weather View 32 v70,2013-01-04 05:57:00,
2013-01-04 01:02:00,26.0,18.9,30.34,WSW,247,1.0,7.0,74,0.00,,,0.00,Weather View 32 v70,2013-01-04 06:02:00,
2013-01-04 01:07:00,25.0,17.9,30.33,WSW,247,4.0,7.0,74,0.00,,,0.00,Weather View 32 v70,2013-01-04 06:07:00,
2013-01-04 01:12:00,25.0,17.9,30.33,SW,225,0.0,7.0,74,0.00,,,0.00,Weather View 32 v70,2013-01-04 06:12:00,
2013-01-04 01:17:00,25.0,17.9,30.33,SW,225,2.0,7.0,74,0.00,,,0.00,Weather View 32 v70,2013-01-04 06:17:00,
2013-01-04 01:22:00,25.0,17.9,30.33,WSW,247,1.0,7.0,74,0.00,,,0.00,Weather View 32 v70,2013-01-04 06:22:00,
2013-01-04 01:27:00,25.0,17.9,30.33,WSW,247,1.0,7.0,74,0.00,,,0.00,Weather View 32 v70,2013-01-04 06:27:00,
2013-01-04 01:32:00,25.0,17.9,30.33,WSW,247,0.0,7.0,74,0.00,,,0.00,Weather View 32 v70,2013-01-04 06:32:00,
2013-01-04 01:37:00,25.0,18.2,30.33,WSW,247,1.0,6.0,75,0.00,,,0.00,Weather View 32 v70,2013-01-04 06:37:00,
2013-01-04 01:42:00,25.0,18.5,30.33,WSW,247,0.0,5.0,76,0.00,,,0.00,Weather View 32 v70,2013-01-04 06:42:00,
2013-01-04 01:47:00,25.0,18.2,30.34,WSW,247,1.0,7.0,75,0.00,,,0.00,Weather View 32 v70,2013-01-04 06:47:00,
2013-01-04 01:52:00,25.0,18.2,30.34,WSW,247,1.0,7.0,75,0.00,,,0.00,Weather View 32 v70,2013-01-04 06:52:00,
2013-01-04 01:57:00,25.0,18.2,30.34,SW,225,1.0,7.0,75,0.00,,,0.00,Weather View 32 v70,2013-01-04 06:57:00,
2013-01-04 02:02:00,25.0,18.2,30.34,SW,225,2.0,7.0,75,0.00,,,0.00,Weather View 32 v70,2013-01-04 07:02:00,
2013-01-04 02:07:00,25.0,17.9,30.34,SW,225,0.0,7.0,74,0.00,,,0.00,Weather View 32 v70,2013-01-04 07:07:00,
2013-01-04 02:12:00,25.0,17.9,30.34,West,270,0.0,7.0,74,0.00,,,0.00,Weather View 32 v70,2013-01-04 07:12:00,
2013-01-04 02:17:00,25.0,18.2,30.34,WSW,247,2.0,7.0,75,0.00,,,0.00,Weather View 32 v70,2013-01-04 07:17:00,
2013-01-04 02:22:00,25.0,18.5,30.34,WSW,247,1.0,7.0,76,0.00,,,0.00,Weather View 32 v70,2013-01-04 07:22:00,
2013-01-04 02:27:00,25.0,18.5,30.34,WSW,247,2.0,7.0,76,0.00,,,0.00,Weather View 32 v70,2013-01-04 07:27:00,
2013-01-04 02:32:00,25.0,18.5,30.34,SSW,202,2.0,7.0,76,0.00,,,0.00,Weather View 32 v70,2013-01-04 07:32:00,
2013-01-04 02:37:00,25.0,18.5,30.34,SW,225,1.0,7.0,76,0.00,,,0.00,Weather View 32 v70,2013-01-04 07:37:00,
2013-01-04 02:42:00,25.0,18.5,30.34,SW,225,1.0,7.0,76,0.00,,,0.00,Weather View 32 v70,2013-01-04 07:42:00,
2013-01-04 02:47:00,25.0,18.5,30.34,WSW,247,2.0,7.0,76,0.00,,,0.00,Weather View 32 v70,2013-01-04 07:47:00,
2013-01-04 02:53:00,25.0,18.5,30.34,SW,225,2.0,7.0,76,0.00,,,0.00,Weather View 32 v70,2013-01-04 07:53:00,
2013-01-04 02:58:00,25.0,18.5,30.33,West,270,0.0,7.0,76,0.00,,,0.00,Weather View 32 v70,2013-01-04 07:58:00,
2013-01-04 03:03:00,25.0,18.5,30.33,SSW,202,2.0,7.0,76,0.00,,,0.00,Weather View 32 v70,2013-01-04 08:03:00,
2013-01-04 03:08:00,25.0,18.8,30.33,SSW,202,4.0,6.0,77,0.00,,,0.00,Weather View 32 v70,2013-01-04 08:08:00,
2013-01-04 03:13:00,25.0,18.8,30.33,SW,225,0.0,6.0,77,0.00,,,0.00,Weather View 32 v70,2013-01-04 08:13:00,
2013-01-04 03:18:00,25.0,19.1,30.33,SW,225,1.0,6.0,78,0.00,,,0.00,Weather View 32 v70,2013-01-04 08:18:00,
2013-01-04 03:23:00,25.0,18.8,30.33,WSW,247,1.0,6.0,77,0.00,,,0.00,Weather View 32 v70,2013-01-04 08:23:00,
2013-01-04 03:28:00,25.0,18.5,30.33,SW,225,4.0,6.0,76,0.00,,,0.00,Weather View 32 v70,2013-01-04 08:28:00,
2013-01-04 03:33:00,25.0,18.8,30.33,WSW,247,0.0,6.0,77,0.00,,,0.00,Weather View 32 v70,2013-01-04 08:33:00,
2013-01-04 03:38:00,24.0,17.8,30.33,West,270,1.0,6.0,77,0.00,,,0.00,Weather View 32 v70,2013-01-04 08:38:00,
2013-01-04 03:43:00,24.0,18.1,30.33,SW,225,1.0,6.0,78,0.00,,,0.00,Weather View 32 v70,2013-01-04 08:43:00,
2013-01-04 03:48:00,24.0,18.1,30.33,SW,225,2.0,6.0,78,0.00,,,0.00,Weather View 32 v70,2013-01-04 08:48:00,
2013-01-04 03:53:00,24.0,18.1,30.33,WSW,247,1.0,6.0,78,0.00,,,0.00,Weather View 32 v70,2013-01-04 08:53:00,
2013-01-04 03:58:00,24.0,18.1,30.33,WSW,247,1.0,6.0,78,0.00,,,0.00,Weather View 32 v70,2013-01-04 08:58:00,
2013-01-04 04:03:00,24.0,18.4,30.33,WSW,247,0.0,6.0,79,0.00,,,0.00,Weather View 32 v70,2013-01-04 09:03:00,
2013-01-04 04:08:00,24.0,18.7,30.33,WNW,292,1.0,5.0,80,0.00,,,0.00,Weather View 32 v70,2013-01-04 09:08:00,
2013-01-04 04:13:00,24.0,18.7,30.33,NNW,337,0.0,5.0,80,0.00,,,0.00,Weather View 32 v70,2013-01-04 09:13:00,
2013-01-04 04:18:00,24.0,18.7,30.33,SW,225,1.0,5.0,80,0.00,,,0.00,Weather View 32 v70,2013-01-04 09:18:00,
2013-01-04 04:23:00,24.0,18.7,30.33,WNW,292,2.0,5.0,80,0.00,,,0.00,Weather View 32 v70,2013-01-04 09:23:00,
2013-01-04 04:28:00,24.0,19.0,30.33,WNW,292,5.0,6.0,81,0.00,,,0.00,Weather View 32 v70,2013-01-04 09:28:00,
2013-01-04 04:33:00,24.0,19.0,30.33,NW,315,1.0,6.0,81,0.00,,,0.00,Weather View 32 v70,2013-01-04 09:33:00,
2013-01-04 04:38:00,24.0,19.0,30.33,NW,315,0.0,6.0,81,0.00,,,0.00,Weather View 32 v70,2013-01-04 09:38:00,
2013-01-04 04:43:00,24.0,19.0,30.33,NW,315,0.0,6.0,81,0.00,,,0.00,Weather View 32 v70,2013-01-04 09:43:00,
2013-01-04 04:48:00,24.0,19.0,30.33,NW,315,2.0,6.0,81,0.00,,,0.00,Weather View 32 v70,2013-01-04 09:48:00,
2013-01-04 04:53:00,24.0,19.3,30.33,WNW,292,1.0,6.0,82,0.00,,,0.00,Weather View 32 v70,2013-01-04 09:53:00,
2013-01-04 04:58:00,24.0,19.3,30.33,WNW,292,1.0,6.0,82,0.00,,,0.00,Weather View 32 v70,2013-01-04 09:58:00,
2013-01-04 05:03:00,24.0,19.6,30.33,NW,315,6.0,6.0,83,0.00,,,0.00,Weather View 32 v70,2013-01-04 10:03:00,
2013-01-04 05:08:00,24.0,19.3,30.33,NW,315,1.0,6.0,82,0.00,,,0.00,Weather View 32 v70,2013-01-04 10:08:00,
2013-01-04 05:13:00,24.0,19.6,30.33,NW,315,0.0,6.0,83,0.00,,,0.00,Weather View 32 v70,2013-01-04 10:13:00,
2013-01-04 05:18:00,24.0,19.9,30.33,WNW,292,1.0,6.0,84,0.00,,,0.00,Weather View 32 v70,2013-01-04 10:18:00,
2013-01-04 05:23:00,24.0,19.6,30.33,WNW,292,1.0,6.0,83,0.00,,,0.00,Weather View 32 v70,2013-01-04 10:23:00,
2013-01-04 05:28:00,24.0,19.6,30.33,WNW,292,0.0,6.0,83,0.00,,,0.00,Weather View 32 v70,2013-01-04 10:28:00,
2013-01-04 05:33:00,24.0,19.6,30.33,NW,315,1.0,6.0,83,0.00,,,0.00,Weather View 32 v70,2013-01-04 10:33:00,
2013-01-04 05:38:00,24.0,19.6,30.34,NW,315,0.0,6.0,83,0.00,,,0.00,Weather View 32 v70,2013-01-04 10:38:00,
2013-01-04 05:43:00,24.0,19.9,30.34,NW,315,0.0,6.0,84,0.00,,,0.00,Weather View 32 v70,2013-01-04 10:43:00,
2013-01-04 05:48:00,24.0,19.9,30.34,NW,315,1.0,6.0,84,0.00,,,0.00,Weather View 32 v70,2013-01-04 10:48:00,
2013-01-04 05:53:00,24.0,19.9,30.34,NNW,337,2.0,6.0,84,0.00,,,0.00,Weather View 32 v70,2013-01-04 10:53:00,
2013-01-04 05:58:00,24.0,19.6,30.34,NNW,337,0.0,6.0,83,0.00,,,0.00,Weather View 32 v70,2013-01-04 10:58:00,
2013-01-04 06:03:00,24.0,19.9,30.34,West,270,1.0,6.0,84,0.00,,,0.00,Weather View 32 v70,2013-01-04 11:03:00,
2013-01-04 06:09:00,24.0,19.9,30.34,NW,315,2.0,7.0,84,0.00,,,0.00,Weather View 32 v70,2013-01-04 11:09:00,
2013-01-04 06:14:00,24.0,19.6,30.34,NW,315,2.0,7.0,83,0.00,,,0.00,Weather View 32 v70,2013-01-04 11:14:00,
2013-01-04 06:19:00,24.0,19.6,30.34,NW,315,0.0,7.0,83,0.00,,,0.00,Weather View 32 v70,2013-01-04 11:19:00,
2013-01-04 06:24:00,24.0,19.9,30.34,NW,315,0.0,7.0,84,0.00,,,0.00,Weather View 32 v70,2013-01-04 11:24:00,
2013-01-04 06:29:00,24.0,19.9,30.34,West,270,0.0,7.0,84,0.00,,,0.00,Weather View 32 v70,2013-01-04 11:29:00,
2013-01-04 06:34:00,24.0,19.9,30.34,West,270,0.0,7.0,84,0.00,,,0.00,Weather View 32 v70,2013-01-04 11:34:00,
2013-01-04 06:39:00,24.0,20.1,30.34,West,270,0.0,7.0,85,0.00,,,0.00,Weather View 32 v70,2013-01-04 11:39:00,
2013-01-04 06:44:00,24.0,20.1,30.34,West,270,0.0,7.0,85,0.00,,,0.00,Weather View 32 v70,2013-01-04 11:44:00,
2013-01-04 06:49:00,24.0,20.4,30.34,West,270,0.0,7.0,86,0.00,,,0.00,Weather View 32 v70,2013-01-04 11:49:00,
2013-01-04 06:54:00,24.0,20.1,30.34,West,270,0.0,7.0,85,0.00,,,0.00,Weather View 32 v70,2013-01-04 11:54:00,
2013-01-04 06:59:00,24.0,20.4,30.34,WSW,247,2.0,7.0,86,0.00,,,0.00,Weather View 32 v70,2013-01-04 11:59:00,
2013-01-04 07:04:00,24.0,20.1,30.34,SW,225,2.0,7.0,85,0.00,,,0.00,Weather View 32 v70,2013-01-04 12:04:00,
2013-01-04 07:09:00,25.0,21.1,30.34,WSW,247,2.0,6.0,85,0.00,,,0.00,Weather View 32 v70,2013-01-04 12:09:00,
2013-01-04 07:14:00,25.0,20.9,30.34,WSW,247,2.0,6.0,84,0.00,,,0.00,Weather View 32 v70,2013-01-04 12:14:00,
2013-01-04 07:19:00,25.0,20.9,30.34,WSW,247,1.0,5.0,84,0.00,,,0.00,Weather View 32 v70,2013-01-04 12:19:00,
2013-01-04 07:24:00,25.0,20.9,30.34,SW,225,3.0,6.0,84,0.00,,,0.00,Weather View 32 v70,2013-01-04 12:24:00,
2013-01-04 07:29:00,25.0,20.9,30.34,WSW,247,2.0,6.0,84,0.00,,,0.00,Weather View 32 v70,2013-01-04 12:29:00,
2013-01-04 07:34:00,25.0,20.9,30.34,WSW,247,2.0,6.0,84,0.00,,,0.00,Weather View 32 v70,2013-01-04 12:34:00,
2013-01-04 07:39:00,25.0,20.9,30.34,SW,225,2.0,6.0,84,0.00,,,0.00,Weather View 32 v70,2013-01-04 12:39:00,
2013-01-04 07:44:00,25.0,21.1,30.34,SW,225,0.0,6.0,85,0.00,,,0.00,Weather View 32 v70,2013-01-04 12:44:00,
2013-01-04 07:49:00,25.0,21.1,30.35,SW,225,1.0,6.0,85,0.00,,,0.00,Weather View 32 v70,2013-01-04 12:49:00,
2013-01-04 07:54:00,26.0,21.8,30.35,WSW,247,3.0,6.0,84,0.00,,,0.00,Weather View 32 v70,2013-01-04 12:54:00,
2013-01-04 07:59:00,26.0,21.8,30.34,WSW,247,1.0,8.0,84,0.00,,,0.00,Weather View 32 v70,2013-01-04 12:59:00,
2013-01-04 08:04:00,26.0,21.8,30.34,SW,225,3.0,8.0,84,0.00,,,0.00,Weather View 32 v70,2013-01-04 13:04:00,
2013-01-04 08:09:00,27.0,22.2,30.35,SW,225,4.0,8.0,82,0.00,,,0.00,Weather View 32 v70,2013-01-04 13:09:00,
2013-01-04 08:14:00,27.0,22.2,30.35,WSW,247,2.0,8.0,82,0.00,,,0.00,Weather View 32 v70,2013-01-04 13:14:00,
2013-01-04 08:19:00,27.0,22.2,30.34,SW,225,2.0,8.0,82,0.00,,,0.00,Weather View 32 v70,2013-01-04 13:19:00,
2013-01-04 08:24:00,27.0,21.9,30.34,SW,225,2.0,8.0,81,0.00,,,0.00,Weather View 32 v70,2013-01-04 13:24:00,
2013-01-04 08:29:00,28.0,22.6,30.34,West,270,1.0,9.0,80,0.00,,,0.00,Weather View 32 v70,2013-01-04 13:29:00,
2013-01-04 08:34:00,28.0,22.6,30.34,West,270,3.0,10.0,80,0.00,,,0.00,Weather View 32 v70,2013-01-04 13:34:00,
2013-01-04 08:39:00,28.0,22.6,30.34,WSW,247,0.0,10.0,80,0.00,,,0.00,Weather View 32 v70,2013-01-04 13:39:00,
2013-01-04 08:44:00,28.0,22.3,30.34,WSW,247,4.0,10.0,79,0.00,,,0.00,Weather View 32 v70,2013-01-04 13:44:00,
2013-01-04 08:50:00,29.0,23.3,30.34,SW,225,3.0,10.0,79,0.00,,,0.00,Weather View 32 v70,2013-01-04 13:50:00,
2013-01-04 08:55:00,29.0,23.0,30.34,WNW,292,0.0,10.0,78,0.00,,,0.00,Weather View 32 v70,2013-01-04 13:55:00,
2013-01-04 09:00:00,30.0,24.0,30.34,SW,225,4.0,10.0,78,0.00,,,0.00,Weather View 32 v70,2013-01-04 14:00:00,
2013-01-04 09:05:00,31.0,24.6,30.34,SW,225,4.0,10.0,77,0.00,,,0.00,Weather View 32 v70,2013-01-04 14:05:00,
2013-01-04 09:10:00,32.0,25.0,30.33,WSW,247,2.0,10.0,75,0.00,,,0.00,Weather View 32 v70,2013-01-04 14:10:00,
2013-01-04 09:15:00,32.0,24.3,30.33,WSW,247,0.0,10.0,73,0.00,,,0.00,Weather View 32 v70,2013-01-04 14:15:00,
2013-01-04 09:20:00,32.0,24.3,30.32,WSW,247,4.0,10.0,73,0.00,,,0.00,Weather View 32 v70,2013-01-04 14:20:00,
2013-01-04 09:25:00,32.0,24.3,30.32,WSW,247,6.0,10.0,73,0.00,,,0.00,Weather View 32 v70,2013-01-04 14:25:00,
2013-01-04 09:30:00,32.0,24.3,30.33,WNW,292,1.0,10.0,73,0.00,,,0.00,Weather View 32 v70,2013-01-04 14:30:00,
2013-01-04 09:35:00,32.0,24.3,30.33,SW,225,2.0,9.0,73,0.00,,,0.00,Weather View 32 v70,2013-01-04 14:35:00,
2013-01-04 09:40:00,32.0,24.3,30.33,WNW,292,1.0,9.0,73,0.00,,,0.00,Weather View 32 v70,2013-01-04 14:40:00,
2013-01-04 09:45:00,32.0,24.3,30.33,WSW,247,1.0,9.0,73,0.00,,,0.00,Weather View 32 v70,2013-01-04 14:45:00,
2013-01-04 09:50:00,33.0,25.0,30.32,WNW,292,1.0,9.0,72,0.00,,,0.00,Weather View 32 v70,2013-01-04 14:50:00,
2013-01-04 09:55:00,33.0,25.0,30.32,NW,315,1.0,9.0,72,0.00,,,0.00,Weather View 32 v70,2013-01-04 14:55:00,
2013-01-04 10:00:00,34.0,25.6,30.32,SSW,202,0.0,9.0,71,0.00,,,0.00,Weather View 32 v70,2013-01-04 15:00:00,
2013-01-04 10:05:00,35.0,26.2,30.32,SW,225,0.0,9.0,70,0.00,,,0.00,Weather View 32 v70,2013-01-04 15:05:00,
2013-01-04 10:10:00,36.0,26.5,30.30,NNE,22,3.0,9.0,68,0.00,,,0.00,Weather View 32 v70,2013-01-04 15:10:00,
2013-01-04 10:15:00,36.0,25.7,30.30,WSW,247,4.0,9.0,66,0.00,,,0.00,Weather View 32 v70,2013-01-04 15:15:00,
2013-01-04 10:20:00,37.0,26.7,30.29,SW,225,2.0,9.0,66,0.00,,,0.00,Weather View 32 v70,2013-01-04 15:20:00,
2013-01-04 10:25:00,37.0,26.7,30.29,SW,225,4.0,9.0,66,0.00,,,0.00,Weather View 32 v70,2013-01-04 15:25:00,
2013-01-04 10:30:00,37.0,26.3,30.28,WSW,247,2.0,12.0,65,0.00,,,0.00,Weather View 32 v70,2013-01-04 15:30:00,
2013-01-04 10:35:00,38.0,26.5,30.28,WSW,247,5.0,12.0,63,0.00,,,0.00,Weather View 32 v70,2013-01-04 15:35:00,
2013-01-04 10:40:00,38.0,26.5,30.27,WSW,247,2.0,14.0,63,0.00,,,0.00,Weather View 32 v70,2013-01-04 15:40:00,
2013-01-04 10:45:00,39.0,27.1,30.27,SW,225,5.0,14.0,62,0.00,,,0.00,Weather View 32 v70,2013-01-04 15:45:00,
2013-01-04 10:50:00,39.0,26.7,30.27,SW,225,5.0,14.0,61,0.00,,,0.00,Weather View 32 v70,2013-01-04 15:50:00,
2013-01-04 10:55:00,39.0,26.3,30.26,WSW,247,2.0,14.0,60,0.00,,,0.00,Weather View 32 v70,2013-01-04 15:55:00,
2013-01-04 11:00:00,39.0,26.7,30.26,NW,315,4.0,14.0,61,0.00,,,0.00,Weather View 32 v70,2013-01-04 16:00:00,
2013-01-04 11:05:00,39.0,26.3,30.26,SSW,202,2.0,14.0,60,0.00,,,0.00,Weather View 32 v70,2013-01-04 16:05:00,
2013-01-04 11:10:00,38.0,25.7,30.26,WNW,292,2.0,14.0,61,0.00,,,0.00,Weather View 32 v70,2013-01-04 16:10:00,
2013-01-04 11:15:00,37.0,25.2,30.26,SSW,202,2.0,14.0,62,0.00,,,0.00,Weather View 32 v70,2013-01-04 16:15:00,
2013-01-04 11:20:00,37.0,25.6,30.26,SW,225,2.0,14.0,63,0.00,,,0.00,Weather View 32 v70,2013-01-04 16:20:00,
2013-01-04 11:26:00,37.0,25.2,30.26,West,270,2.0,14.0,62,0.00,,,0.00,Weather View 32 v70,2013-01-04 16:26:00,
2013-01-04 11:31:00,37.0,25.6,30.26,South,180,4.0,14.0,63,0.00,,,0.00,Weather View 32 v70,2013-01-04 16:31:00,
2013-01-04 11:36:00,37.0,25.9,30.25,SW,225,2.0,14.0,64,0.00,,,0.00,Weather View 32 v70,2013-01-04 16:36:00,
2013-01-04 11:41:00,37.0,25.9,30.25,NNW,337,3.0,16.0,64,0.00,,,0.00,Weather View 32 v70,2013-01-04 16:41:00,
2013-01-04 11:46:00,37.0,25.9,30.24,SSW,202,6.0,16.0,64,0.00,,,0.00,Weather View 32 v70,2013-01-04 16:46:00,
2013-01-04 11:51:00,37.0,25.6,30.24,NW,315,2.0,16.0,63,0.00,,,0.00,Weather View 32 v70,2013-01-04 16:51:00,
2013-01-04 11:56:00,38.0,25.3,30.23,SW,225,6.0,16.0,60,0.00,,,0.00,Weather View 32 v70,2013-01-04 16:56:00,
2013-01-04 12:01:00,38.0,25.7,30.23,SSW,202,5.0,16.0,61,0.00,,,0.00,Weather View 32 v70,2013-01-04 17:01:00,
2013-01-04 12:06:00,37.0,24.8,30.23,WSW,247,5.0,16.0,61,0.01,,,0.01,Weather View 32 v70,2013-01-04 17:06:00,
2013-01-04 12:11:00,37.0,24.8,30.23,NW,315,6.0,16.0,61,0.01,,,0.01,Weather View 32 v70,2013-01-04 17:11:00,
2013-01-04 12:16:00,37.0,25.2,30.22,WSW,247,2.0,16.0,62,0.01,,,0.01,Weather View 32 v70,2013-01-04 17:16:00,
2013-01-04 12:21:00,37.0,25.6,30.22,WSW,247,4.0,16.0,63,0.01,,,0.01,Weather View 32 v70,2013-01-04 17:21:00,
2013-01-04 12:26:00,37.0,25.6,30.22,WSW,247,4.0,16.0,63,0.01,,,0.01,Weather View 32 v70,2013-01-04 17:26:00,
2013-01-04 12:31:00,38.0,25.3,30.22,WSW,247,2.0,16.0,60,0.01,,,0.01,Weather View 32 v70,2013-01-04 17:31:00,
2013-01-04 12:36:00,39.0,25.9,30.20,WSW,247,1.0,16.0,59,0.01,,,0.01,Weather View 32 v70,2013-01-04 17:36:00,
2013-01-04 12:41:00,39.0,25.0,30.20,SSW,202,0.0,11.0,57,0.01,,,0.01,Weather View 32 v70,2013-01-04 17:41:00,
2013-01-04 12:46:00,38.0,24.9,30.20,SSW,202,3.0,16.0,59,0.01,,,0.01,Weather View 32 v70,2013-01-04 17:46:00,
2013-01-04 12:51:00,37.0,24.4,30.20,WNW,292,2.0,16.0,60,0.01,,,0.01,Weather View 32 v70,2013-01-04 17:51:00,
2013-01-04 12:56:00,37.0,24.8,30.20,NW,315,8.0,16.0,61,0.01,,,0.01,Weather View 32 v70,2013-01-04 17:56:00,
2013-01-04 13:01:00,38.0,25.7,30.20,SW,225,4.0,16.0,61,0.01,,,0.01,Weather View 32 v70,2013-01-04 18:01:00,
2013-01-04 13:06:00,37.0,25.2,30.20,SW,225,2.0,16.0,62,0.00,,,0.01,Weather View 32 v70,2013-01-04 18:06:00,
2013-01-04 13:11:00,37.0,25.9,30.20,West,270,3.0,16.0,64,0.00,,,0.01,Weather View 32 v70,2013-01-04 18:11:00,
2013-01-04 13:16:00,37.0,25.9,30.19,SSW,202,3.0,16.0,64,0.00,,,0.01,Weather View 32 v70,2013-01-04 18:16:00,
2013-01-04 13:21:00,36.0,25.7,30.19,SW,225,6.0,16.0,66,0.00,,,0.01,Weather View 32 v70,2013-01-04 18:21:00,
2013-01-04 13:26:00,36.0,25.7,30.19,ESE,112,1.0,16.0,66,0.00,,,0.01,Weather View 32 v70,2013-01-04 18:26:00,
2013-01-04 13:31:00,36.0,26.1,30.19,SW,225,6.0,16.0,67,0.00,,,0.01,Weather View 32 v70,2013-01-04 18:31:00,
2013-01-04 13:36:00,36.0,25.7,30.19,WSW,247,2.0,16.0,66,0.00,,,0.01,Weather View 32 v70,2013-01-04 18:36:00,
2013-01-04 13:41:00,36.0,26.1,30.19,SSW,202,2.0,16.0,67,0.00,,,0.01,Weather View 32 v70,2013-01-04 18:41:00,
2013-01-04 13:46:00,37.0,26.7,30.18,SSW,202,7.0,16.0,66,0.00,,,0.01,Weather View 32 v70,2013-01-04 18:46:00,
2013-01-04 13:51:00,38.0,26.5,30.18,SSW,202,8.0,16.0,63,0.01,,,0.02,Weather View 32 v70,2013-01-04 18:51:00,
2013-01-04 13:56:00,38.0,25.7,30.18,WSW,247,0.0,16.0,61,0.01,,,0.02,Weather View 32 v70,2013-01-04 18:56:00,
2013-01-04 14:01:00,38.0,25.7,30.18,SW,225,13.0,16.0,61,0.01,,,0.02,Weather View 32 v70,2013-01-04 19:01:00,
2013-01-04 14:06:00,38.0,26.5,30.17,NW,315,5.0,19.0,63,0.01,,,0.02,Weather View 32 v70,2013-01-04 19:06:00,
2013-01-04 14:11:00,38.0,26.5,30.17,SSW,202,8.0,19.0,63,0.01,,,0.02,Weather View 32 v70,2013-01-04 19:11:00,
2013-01-04 14:16:00,38.0,26.5,30.17,SSW,202,14.0,19.0,63,0.01,,,0.03,Weather View 32 v70,2013-01-04 19:16:00,
2013-01-04 14:22:00,37.0,26.3,30.17,SSW,202,6.0,19.0,65,0.02,,,0.03,Weather View 32 v70,2013-01-04 19:22:00,
2013-01-04 14:27:00,37.0,26.7,30.18,SSW,202,5.0,19.0,66,0.02,,,0.03,Weather View 32 v70,2013-01-04 19:27:00,
2013-01-04 14:32:00,37.0,26.3,30.18,SW,225,7.0,19.0,65,0.02,,,0.03,Weather View 32 v70,2013-01-04 19:32:00,
2013-01-04 14:37:00,37.0,26.7,30.18,SSW,202,5.0,19.0,66,0.02,,,0.03,Weather View 32 v70,2013-01-04 19:37:00,
2013-01-04 14:42:00,37.0,26.3,30.18,SSW,202,5.0,19.0,65,0.02,,,0.03,Weather View 32 v70,2013-01-04 19:42:00,
2013-01-04 14:47:00,37.0,26.3,30.18,West,270,6.0,19.0,65,0.01,,,0.03,Weather View 32 v70,2013-01-04 19:47:00,
2013-01-04 14:52:00,37.0,26.3,30.18,WSW,247,3.0,19.0,65,0.01,,,0.03,Weather View 32 v70,2013-01-04 19:52:00,
2013-01-04 14:57:00,37.0,26.7,30.18,SW,225,7.0,19.0,66,0.01,,,0.03,Weather View 32 v70,2013-01-04 19:57:00,
2013-01-04 15:02:00,36.0,26.1,30.18,SW,225,9.0,19.0,67,0.01,,,0.03,Weather View 32 v70,2013-01-04 20:02:00,
2013-01-04 15:07:00,37.0,27.1,30.18,SW,225,6.0,17.0,67,0.01,,,0.03,Weather View 32 v70,2013-01-04 20:07:00,
2013-01-04 15:12:00,37.0,26.7,30.18,North,360,2.0,17.0,66,0.01,,,0.03,Weather View 32 v70,2013-01-04 20:12:00,
2013-01-04 15:17:00,37.0,26.7,30.17,West,270,3.0,17.0,66,0.00,,,0.03,Weather View 32 v70,2013-01-04 20:17:00,
2013-01-04 15:22:00,37.0,27.1,30.17,SW,225,6.0,17.0,67,0.00,,,0.03,Weather View 32 v70,2013-01-04 20:22:00,
2013-01-04 15:27:00,37.0,27.1,30.17,SW,225,7.0,17.0,67,0.00,,,0.03,Weather View 32 v70,2013-01-04 20:27:00,
2013-01-04 15:32:00,37.0,27.1,30.17,SSW,202,4.0,17.0,67,0.01,,,0.04,Weather View 32 v70,2013-01-04 20:32:00,
2013-01-04 15:37:00,36.0,26.1,30.17,WSW,247,6.0,17.0,67,0.01,,,0.04,Weather View 32 v70,2013-01-04 20:37:00,
2013-01-04 15:42:00,36.0,26.5,30.17,South,180,1.0,17.0,68,0.01,,,0.04,Weather View 32 v70,2013-01-04 20:42:00,
2013-01-04 15:47:00,36.0,26.1,30.18,SSW,202,2.0,17.0,67,0.01,,,0.04,Weather View 32 v70,2013-01-04 20:47:00,
2013-01-04 15:52:00,36.0,26.8,30.18,SSW,202,5.0,17.0,69,0.01,,,0.04,Weather View 32 v70,2013-01-04 20:52:00,
2013-01-04 15:57:00,35.0,25.9,30.17,WSW,247,2.0,17.0,69,0.01,,,0.04,Weather View 32 v70,2013-01-04 20:57:00,
2013-01-04 16:02:00,35.0,26.2,30.17,NNW,337,2.0,17.0,70,0.01,,,0.04,Weather View 32 v70,2013-01-04 21:02:00,
2013-01-04 16:07:00,35.0,26.2,30.17,SW,225,6.0,17.0,70,0.01,,,0.04,Weather View 32 v70,2013-01-04 21:07:00,
2013-01-04 16:12:00,35.0,26.2,30.17,WSW,247,2.0,15.0,70,0.01,,,0.04,Weather View 32 v70,2013-01-04 21:12:00,
2013-01-04 16:17:00,34.0,24.9,30.17,SSW,202,4.0,13.0,69,0.01,,,0.04,Weather View 32 v70,2013-01-04 21:17:00,
2013-01-04 16:22:00,34.0,25.2,30.17,WSW,247,2.0,13.0,70,0.01,,,0.04,Weather View 32 v70,2013-01-04 21:22:00,
2013-01-04 16:27:00,34.0,25.6,30.18,SW,225,4.0,13.0,71,0.01,,,0.04,Weather View 32 v70,2013-01-04 21:27:00,
2013-01-04 16:32:00,34.0,25.6,30.18,NNW,337,6.0,13.0,71,0.00,,,0.04,Weather View 32 v70,2013-01-04 21:32:00,
2013-01-04 16:37:00,34.0,25.9,30.18,WSW,247,2.0,13.0,72,0.00,,,0.04,Weather View 32 v70,2013-01-04 21:37:00,
2013-01-04 16:42:00,34.0,25.9,30.18,SW,225,3.0,13.0,72,0.00,,,0.04,Weather View 32 v70,2013-01-04 21:42:00,
2013-01-04 16:47:00,34.0,25.6,30.18,SW,225,2.0,11.0,71,0.00,,,0.04,Weather View 32 v70,2013-01-04 21:47:00,
2013-01-04 16:53:00,34.0,25.6,30.18,SW,225,3.0,10.0,71,-0.04,,,0.04,Weather View 32 v70,2013-01-04 21:53:00,
2013-01-04 16:58:00,34.0,25.9,30.17,WSW,247,1.0,10.0,72,0.00,,,0.04,Weather View 32 v70,2013-01-04 21:58:00,
2013-01-04 17:03:00,34.0,25.9,30.17,WSW,247,2.0,10.0,72,0.00,,,0.04,Weather View 32 v70,2013-01-04 22:03:00,
2013-01-04 17:08:00,34.0,25.9,30.17,WSW,247,3.0,10.0,72,0.00,,,0.04,Weather View 32 v70,2013-01-04 22:08:00,
2013-01-04 17:13:00,34.0,25.9,30.17,West,270,3.0,10.0,72,0.00,,,0.04,Weather View 32 v70,2013-01-04 22:13:00,
2013-01-04 17:18:00,34.0,25.9,30.17,SW,225,5.0,10.0,72,0.00,,,0.04,Weather View 32 v70,2013-01-04 22:18:00,
2013-01-04 17:23:00,34.0,25.9,30.17,SW,225,5.0,10.0,72,0.00,,,0.04,Weather View 32 v70,2013-01-04 22:23:00,
2013-01-04 17:28:00,34.0,25.9,30.18,WSW,247,3.0,10.0,72,0.00,,,0.04,Weather View 32 v70,2013-01-04 22:28:00,
2013-01-04 17:33:00,34.0,25.2,30.18,WNW,292,6.0,10.0,70,0.00,,,0.04,Weather View 32 v70,2013-01-04 22:33:00,
2013-01-04 17:38:00,35.0,26.5,30.17,West,270,1.0,10.0,71,0.00,,,0.04,Weather View 32 v70,2013-01-04 22:38:00,
2013-01-04 17:43:00,35.0,26.2,30.17,WSW,247,1.0,10.0,70,0.00,,,0.04,Weather View 32 v70,2013-01-04 22:43:00,
2013-01-04 17:48:00,35.0,26.2,30.18,SW,225,5.0,10.0,70,0.00,,,0.04,Weather View 32 v70,2013-01-04 22:48:00,
2013-01-04 17:53:00,35.0,25.9,30.18,SW,225,4.0,8.0,69,0.00,,,0.04,Weather View 32 v70,2013-01-04 22:53:00,
2013-01-04 17:58:00,34.0,24.9,30.18,SW,225,3.0,8.0,69,0.00,,,0.04,Weather View 32 v70,2013-01-04 22:58:00,
2013-01-04 18:03:00,34.0,24.9,30.18,WSW,247,2.0,9.0,69,0.00,,,0.04,Weather View 32 v70,2013-01-04 23:03:00,
2013-01-04 18:08:00,34.0,24.9,30.18,WSW,247,2.0,12.0,69,0.00,,,0.04,Weather View 32 v70,2013-01-04 23:08:00,
2013-01-04 18:13:00,34.0,24.9,30.18,SW,225,5.0,12.0,69,0.00,,,0.04,Weather View 32 v70,2013-01-04 23:13:00,
2013-01-04 18:18:00,34.0,24.9,30.18,WSW,247,2.0,12.0,69,0.00,,,0.04,Weather View 32 v70,2013-01-04 23:18:00,
2013-01-04 18:23:00,34.0,25.2,30.18,West,270,3.0,12.0,70,0.00,,,0.04,Weather View 32 v70,2013-01-04 23:23:00,
2013-01-04 18:28:00,34.0,24.9,30.19,WSW,247,0.0,12.0,69,0.00,,,0.04,Weather View 32 v70,2013-01-04 23:28:00,
2013-01-04 18:33:00,34.0,24.9,30.19,WSW,247,3.0,12.0,69,0.00,,,0.04,Weather View 32 v70,2013-01-04 23:33:00,
2013-01-04 18:38:00,34.0,24.9,30.18,SW,225,4.0,12.0,69,0.00,,,0.04,Weather View 32 v70,2013-01-04 23:38:00,
2013-01-04 18:43:00,34.0,24.9,30.18,WSW,247,0.0,12.0,69,0.00,,,0.04,Weather View 32 v70,2013-01-04 23:43:00,
2013-01-04 18:48:00,34.0,24.9,30.19,West,270,1.0,12.0,69,0.00,,,0.04,Weather View 32 v70,2013-01-04 23:48:00,
2013-01-04 18:53:00,34.0,24.9,30.19,SSW,202,2.0,12.0,69,0.00,,,0.04,Weather View 32 v70,2013-01-04 23:53:00,
2013-01-04 18:58:00,34.0,24.9,30.19,WSW,247,7.0,12.0,69,0.00,,,0.04,Weather View 32 v70,2013-01-04 23:58:00,
2013-01-04 19:03:00,34.0,24.5,30.19,West,270,2.0,12.0,68,0.00,,,0.04,Weather View 32 v70,2013-01-05 00:03:00,
2013-01-04 19:08:00,34.0,24.9,30.20,WSW,247,5.0,10.0,69,0.00,,,0.04,Weather View 32 v70,2013-01-05 00:08:00,
2013-01-04 19:13:00,34.0,24.9,30.20,WSW,247,4.0,10.0,69,0.00,,,0.04,Weather View 32 v70,2013-01-05 00:13:00,
2013-01-04 19:18:00,34.0,24.9,30.20,WSW,247,1.0,10.0,69,0.00,,,0.04,Weather View 32 v70,2013-01-05 00:18:00,
2013-01-04 19:23:00,34.0,24.9,30.20,WSW,247,2.0,10.0,69,0.00,,,0.04,Weather View 32 v70,2013-01-05 00:23:00,
2013-01-04 19:28:00,34.0,25.2,30.20,WSW,247,3.0,10.0,70,0.00,,,0.04,Weather View 32 v70,2013-01-05 00:28:00,
2013-01-04 19:33:00,34.0,25.2,30.20,WSW,247,2.0,10.0,70,0.00,,,0.04,Weather View 32 v70,2013-01-05 00:33:00,
2013-01-04 19:39:00,34.0,25.6,30.20,SW,225,2.0,10.0,71,0.00,,,0.04,Weather View 32 v70,2013-01-05 00:39:00,
2013-01-04 19:44:00,34.0,25.6,30.20,West,270,1.0,10.0,71,0.00,,,0.04,Weather View 32 v70,2013-01-05 00:44:00,
2013-01-04 19:49:00,34.0,25.9,30.20,SW,225,1.0,11.0,72,0.00,,,0.04,Weather View 32 v70,2013-01-05 00:49:00,
2013-01-04 19:54:00,34.0,25.9,30.20,SW,225,5.0,11.0,72,0.00,,,0.04,Weather View 32 v70,2013-01-05 00:54:00,
2013-01-04 19:59:00,34.0,25.6,30.20,WSW,247,1.0,12.0,71,0.00,,,0.04,Weather View 32 v70,2013-01-05 00:59:00,
2013-01-04 20:04:00,34.0,25.6,30.20,NNW,337,3.0,12.0,71,0.00,,,0.04,Weather View 32 v70,2013-01-05 01:04:00,
2013-01-04 20:09:00,34.0,25.6,30.20,WSW,247,3.0,12.0,71,0.00,,,0.04,Weather View 32 v70,2013-01-05 01:09:00,
2013-01-04 20:14:00,34.0,25.9,30.20,SSW,202,6.0,12.0,72,0.00,,,0.04,Weather View 32 v70,2013-01-05 01:14:00,
2013-01-04 20:19:00,34.0,25.9,30.20,SSE,157,2.0,12.0,72,0.00,,,0.04,Weather View 32 v70,2013-01-05 01:19:00,
2013-01-04 20:24:00,34.0,25.6,30.20,WSW,247,8.0,12.0,71,0.00,,,0.04,Weather View 32 v70,2013-01-05 01:24:00,
2013-01-04 20:29:00,34.0,25.6,30.20,WSW,247,3.0,12.0,71,0.00,,,0.04,Weather View 32 v70,2013-01-05 01:29:00,
2013-01-04 20:34:00,34.0,25.6,30.20,West,270,2.0,12.0,71,0.00,,,0.04,Weather View 32 v70,2013-01-05 01:34:00,
2013-01-04 20:39:00,34.0,25.6,30.20,SW,225,5.0,12.0,71,0.00,,,0.04,Weather View 32 v70,2013-01-05 01:39:00,
2013-01-04 20:44:00,34.0,25.6,30.20,West,270,1.0,12.0,71,0.00,,,0.04,Weather View 32 v70,2013-01-05 01:44:00,
2013-01-04 20:49:00,34.0,25.6,30.20,West,270,4.0,12.0,71,0.00,,,0.04,Weather View 32 v70,2013-01-05 01:49:00,
2013-01-04 20:54:00,34.0,25.6,30.20,South,180,5.0,12.0,71,0.00,,,0.04,Weather View 32 v70,2013-01-05 01:54:00,
2013-01-04 20:59:00,34.0,25.6,30.20,SW,225,3.0,12.0,71,0.00,,,0.04,Weather View 32 v70,2013-01-05 01:59:00,
2013-01-04 21:04:00,34.0,25.2,30.20,WNW,292,3.0,11.0,70,0.00,,,0.04,Weather View 32 v70,2013-01-05 02:04:00,
2013-01-04 21:09:00,34.0,25.2,30.19,NW,315,1.0,11.0,70,0.00,,,0.04,Weather View 32 v70,2013-01-05 02:09:00,
2013-01-04 21:14:00,34.0,25.6,30.19,NNW,337,9.0,11.0,71,0.00,,,0.04,Weather View 32 v70,2013-01-05 02:14:00,
2013-01-04 21:19:00,34.0,25.6,30.19,WNW,292,1.0,12.0,71,0.00,,,0.04,Weather View 32 v70,2013-01-05 02:19:00,
2013-01-04 21:24:00,34.0,25.2,30.19,WNW,292,3.0,12.0,70,0.00,,,0.04,Weather View 32 v70,2013-01-05 02:24:00,
2013-01-04 21:29:00,34.0,24.9,30.19,SW,225,0.0,12.0,69,0.00,,,0.04,Weather View 32 v70,2013-01-05 02:29:00,
2013-01-04 21:34:00,33.0,24.3,30.19,West,270,0.0,12.0,70,0.00,,,0.04,Weather View 32 v70,2013-01-05 02:34:00,
2013-01-04 21:39:00,33.0,24.3,30.20,WNW,292,1.0,12.0,70,0.00,,,0.04,Weather View 32 v70,2013-01-05 02:39:00,
2013-01-04 21:44:00,33.0,24.3,30.20,WSW,247,0.0,12.0,70,0.00,,,0.04,Weather View 32 v70,2013-01-05 02:44:00,
2013-01-04 21:49:00,33.0,24.6,30.20,NW,315,2.0,12.0,71,0.00,,,0.04,Weather View 32 v70,2013-01-05 02:49:00,
2013-01-04 21:54:00,33.0,24.6,30.20,West,270,1.0,12.0,71,0.00,,,0.04,Weather View 32 v70,2013-01-05 02:54:00,
2013-01-04 21:59:00,33.0,24.3,30.19,WNW,292,5.0,12.0,70,0.00,,,0.04,Weather View 32 v70,2013-01-05 02:59:00,
2013-01-04 22:04:00,33.0,24.3,30.19,WNW,292,0.0,12.0,70,0.00,,,0.04,Weather View 32 v70,2013-01-05 03:04:00,
2013-01-04 22:09:00,32.0,24.0,30.20,West,270,2.0,12.0,72,0.00,,,0.04,Weather View 32 v70,2013-01-05 03:09:00,
2013-01-04 22:14:00,32.0,24.0,30.20,WNW,292,4.0,12.0,72,0.00,,,0.04,Weather View 32 v70,2013-01-05 03:14:00,
2013-01-04 22:20:00,32.0,24.0,30.21,West,270,0.0,12.0,72,0.00,,,0.04,Weather View 32 v70,2013-01-05 03:20:00,
2013-01-04 22:25:00,32.0,24.0,30.21,NW,315,2.0,10.0,72,0.00,,,0.04,Weather View 32 v70,2013-01-05 03:25:00,
2013-01-04 22:30:00,31.0,23.0,30.21,SW,225,0.0,10.0,72,0.00,,,0.04,Weather View 32 v70,2013-01-05 03:30:00,
2013-01-04 22:35:00,31.0,23.4,30.21,WSW,247,3.0,10.0,73,0.00,,,0.04,Weather View 32 v70,2013-01-05 03:35:00,
2013-01-04 22:40:00,31.0,23.4,30.21,WSW,247,0.0,9.0,73,0.00,,,0.04,Weather View 32 v70,2013-01-05 03:40:00,
2013-01-04 22:45:00,31.0,23.4,30.21,NNW,337,3.0,8.0,73,0.00,,,0.04,Weather View 32 v70,2013-01-05 03:45:00,
2013-01-04 22:50:00,31.0,23.4,30.22,WSW,247,3.0,7.0,73,0.00,,,0.04,Weather View 32 v70,2013-01-05 03:50:00,
2013-01-04 22:55:00,31.0,23.4,30.22,NNW,337,2.0,7.0,73,0.00,,,0.04,Weather View 32 v70,2013-01-05 03:55:00,
2013-01-04 23:00:00,31.0,23.0,30.22,WSW,247,2.0,7.0,72,0.00,,,0.04,Weather View 32 v70,2013-01-05 04:00:00,
2013-01-04 23:05:00,31.0,23.4,30.22,WNW,292,1.0,7.0,73,0.00,,,0.04,Weather View 32 v70,2013-01-05 04:05:00,
2013-01-04 23:10:00,31.0,23.0,30.22,WNW,292,0.0,7.0,72,0.00,,,0.04,Weather View 32 v70,2013-01-05 04:10:00,
2013-01-04 23:15:00,31.0,23.0,30.22,WSW,247,0.0,7.0,72,0.00,,,0.04,Weather View 32 v70,2013-01-05 04:15:00,
2013-01-04 23:20:00,30.0,22.1,30.22,West,270,0.0,7.0,72,0.00,,,0.04,Weather View 32 v70,2013-01-05 04:20:00,
2013-01-04 23:25:00,30.0,22.4,30.22,West,270,2.0,7.0,73,0.00,,,0.04,Weather View 32 v70,2013-01-05 04:25:00,
2013-01-04 23:30:00,30.0,22.4,30.23,West,270,1.0,7.0,73,0.00,,,0.04,Weather View 32 v70,2013-01-05 04:30:00,
2013-01-04 23:35:00,30.0,22.4,30.23,WSW,247,3.0,7.0,73,0.00,,,0.04,Weather View 32 v70,2013-01-05 04:35:00,
2013-01-04 23:40:00,30.0,22.4,30.23,WSW,247,1.0,7.0,73,0.00,,,0.04,Weather View 32 v70,2013-01-05 04:40:00,
2013-01-04 23:45:00,30.0,22.7,30.23,SW,225,1.0,7.0,74,0.00,,,0.04,Weather View 32 v70,2013-01-05 04:45:00,
2013-01-04 23:50:00,29.0,21.8,30.23,WSW,247,0.0,6.0,74,0.00,,,0.04,Weather View 32 v70,2013-01-05 04:50:00,
2013-01-04 23:55:00,29.0,21.8,30.23,WSW,247,1.0,6.0,74,0.00,,,0.04,Weather View 32 v70,2013-01-05 04:55:00,